Location: Lane
(33.5226°N, 79.8788°W)
Time: 13:51:39
(UTC+00:00)

SR - Pass Details

Date: 28 September 2022
Orbit: 577 x 874 km, 66.7° (Epoch: 30 November)

Event Time Altitude Azimuth Distance (km) Brightness Sun altitude
Rises 11:03:57 0° 352° (N) 3,324 ? -2.5°
Reaches altitude 10° 11:07:47 10° 17° (NNE) 2,323 ? -1.7°
Maximum altitude 11:10:24 14° 47° (NE) 2,023 ? -1.1°
Drops below altitude 10° 11:12:57 10° 77° (ENE) 2,217 ? -0.6°
Sets 11:16:25 0° 104° (ESE) 3,060 ? 0.1°
